GEFSGL_con_prob3kmehi_354.txt.gz
EHI
19 19 17 14 12 14 19 21 21 20 18 17 18 18 16 13 12 12 11 10 10 12 11 9 8 8 7 6 7 9 10 11 10 9 5 3 4 6 6 5 3 2 1
21 20 19 16 15 17 19 20 21 20 18 16 15 16 17 17 16 14 13 12 12 12 12 10 9 9 8 8 8 9 10 10 10 9 7 5 5 6 6 4 2 1 1
23 23 21 19 19 20 21 20 20 20 17 13 12 14 17 18 17 15 14 13 13 13 14 13 12 11 10 10 10 10 10 10 10 10 9 8 6 5 5 3 2 2 1
23 23 21 19 21 23 24 24 23 20 16 12 12 15 16 15 14 13 13 12 11 12 13 14 14 12 11 11 10 10 10 10 10 10 9 8 6 4 3 2 2 3 2
21 20 18 19 23 27 29 28 26 22 18 15 14 15 14 12 10 10 11 10 10 11 11 12 13 11 10 9 8 8 9 10 10 11 10 8 6 4 2 1 2 3 2
20 20 19 20 25 30 32 31 28 24 21 17 15 13 12 9 7 6 8 9 10 11 11 11 11 10 7 6 4 4 6 7 8 11 11 10 7 4 2 1 2 4 4
21 21 22 25 27 30 33 34 30 26 22 19 16 12 10 8 5 4 5 7 10 11 12 12 11 9 8 6 4 3 4 4 5 8 9 9 8 6 4 3 3 5 5
20 20 22 26 28 28 31 32 30 26 24 22 18 13 10 8 5 3 3 5 9 10 12 13 12 11 8 7 6 6 6 5 4 3 5 6 5 5 5 5 5 5 5
18 19 21 23 26 28 28 28 27 25 24 22 18 14 11 9 6 3 3 6 10 11 12 11 10 8 6 5 6 8 9 8 5 2 2 2 2 1 3 5 6 5 3
16 18 20 22 25 27 26 23 22 22 21 19 15 12 12 11 7 3 3 8 13 14 14 11 8 5 3 2 4 6 8 8 8 5 3 2 2 2 2 4 5 4 2
14 17 20 22 24 24 23 21 20 19 19 19 15 12 13 12 8 3 3 8 13 15 16 13 8 4 1 1 2 3 5 6 8 8 6 5 5 5 4 4 4 4 3
14 17 20 21 21 20 20 21 21 20 19 19 18 15 14 12 7 3 2 3 8 12 14 13 9 4 1 0 0 1 1 3 6 8 7 6 7 7 6 6 6 6 6
19 19 19 19 19 17 17 19 20 19 18 19 19 18 15 12 10 7 3 1 2 6 10 9 6 2 0 0 0 0 0 1 4 5 5 5 5 5 6 7 8 8 7
20 18 17 16 16 15 14 15 16 17 17 17 17 16 15 15 14 12 9 5 4 5 7 7 5 2 1 1 1 1 0 1 2 3 3 2 2 2 3 5 7 7 6
18 15 14 14 13 12 11 11 12 13 14 13 12 11 12 12 11 10 10 8 6 7 9 11 10 7 3 2 3 2 1 0 1 1 1 1 0 0 1 2 4 4 4
14 13 12 13 12 11 10 10 9 8 7 6 5 5 5 5 5 4 4 5 4 6 9 13 14 12 7 4 3 2 1 0 0 0 0 0 0 0 1 2 3 3 3
12 11 10 11 11 10 9 9 8 6 4 2 1 1 1 1 1 0 0 1 1 3 6 10 13 13 10 6 4 2 1 0 0 0 0 0 0 1 2 3 3 3 3
9 7 7 7 7 7 6 6 6 5 4 2 1 0 0 0 0 0 0 0 1 2 5 7 9 10 10 8 6 3 1 0 1 1 1 1 1 2 3 3 3 3 2
6 4 3 3 3 4 4 5 5 5 5 4 2 1 0 0 0 0 0 1 2 3 4 5 6 7 8 8 6 3 0 0 1 2 2 2 3 3 3 2 2 1 1
3 2 1 0 1 2 3 4 4 4 5 4 3 2 1 0 0 0 0 2 3 3 3 4 4 4 6 6 5 3 1 1 1 2 2 2 2 2 1 1 1 0 0
1 1 0 0 0 1 2 3 4 4 4 4 3 2 1 0 0 0 0 1 2 2 2 3 3 3 3 2 2 3 2 1 1 1 1 1 1 1 0 0 0 0 0
1 0 0 0 0 1 2 3 3 3 3 3 3 2 1 0 0 0 1 2 2 1 1 2 2 1 1 0 0 1 1 1 0 0 0 0 0 0 0 0 0 0 0
1 0 0 0 0 1 2 3 3 3 3 3 3 3 1 1 1 1 1 2 2 1 0 1 1 0 0 0 0 0 0 0 0 0 0 0 0 0 0 0 0 0 0
0 0 0 0 0 0 1 1 2 1 1 3 3 3 2 1 0 0 1 1 1 0 0 0 0 0 0 0 0 0 0 0 0 0 0 0 0 0 0 0 0 0 0
0 0 0 1 2 1 1 1 1 1 1 2 2 3 2 1 0 0 0 0 0 0 0 0 0 0 0 0 0 0 0 0 0 0 1 0 0 0 0 0 0 0 0
0 0 1 2 3 2 2 2 2 2 1 1 1 2 2 1 0 0 0 1 1 1 0 0 0 0 0 0 1 1 1 0 0 0 1 0 0 0 0 0 0 0 0

GEFSGL_con_prob3kmehi_360.txt.gz
EHI
43 42 42 44 45 42 40 37 32 29 31 33 33 31 30 30 29 27 27 28 28 23 17 13 13 13 13 13 12 13 14 12 9 8 10 12 13 12 9 8 7 6 5
43 40 39 41 43 41 39 36 33 30 29 30 30 29 28 28 28 25 25 27 27 24 19 17 16 16 18 17 13 12 14 14 11 9 10 12 13 13 10 8 6 4 4
41 37 34 36 40 40 37 34 34 30 27 26 26 26 26 27 26 23 22 25 25 22 21 22 22 22 22 18 14 12 13 14 13 11 10 11 13 13 11 8 6 3 2
41 37 33 34 37 37 34 31 32 29 25 23 24 24 25 25 24 22 20 22 22 20 20 21 21 21 20 16 13 13 14 15 14 11 9 9 11 12 12 10 7 5 2
44 40 36 35 35 33 32 32 31 29 25 25 26 26 25 24 21 19 17 18 20 19 18 17 15 13 13 12 11 11 13 16 15 11 8 8 9 11 12 12 10 6 3
46 42 38 36 34 31 31 33 33 30 28 29 31 30 26 20 15 12 12 13 15 16 16 16 13 10 9 9 8 8 10 11 12 9 6 6 9 12 13 13 10 6 3
47 43 38 34 32 30 30 33 34 32 32 33 34 33 26 16 9 5 5 8 11 14 16 16 15 13 10 9 7 6 6 6 6 6 5 5 8 12 14 13 10 6 3
45 42 38 34 32 32 32 34 35 33 34 35 35 33 27 17 7 3 2 5 9 13 16 16 15 14 12 10 8 7 7 6 4 3 4 4 5 9 12 11 8 5 3
42 40 37 35 34 34 34 35 35 33 32 35 36 33 28 20 9 3 3 5 9 13 15 15 13 12 10 9 10 11 11 9 6 3 3 3 3 4 7 8 7 5 3
40 38 37 36 35 35 35 35 34 31 30 31 33 32 29 22 11 4 4 8 12 14 15 14 11 8 6 6 11 14 13 11 9 5 4 3 1 1 3 5 6 5 5
38 37 36 36 35 34 35 35 34 32 29 27 28 29 27 21 12 4 3 8 12 13 15 16 12 6 2 3 8 11 10 9 8 7 6 4 3 1 2 3 5 6 7
37 37 36 36 34 32 34 35 34 32 29 27 26 26 24 20 13 5 2 4 8 11 15 16 12 5 1 0 3 5 5 4 6 7 7 6 4 3 4 4 4 5 6
36 37 37 36 33 31 31 31 29 27 26 25 25 24 21 19 16 9 3 1 2 6 12 12 8 3 1 0 1 1 1 2 5 6 6 6 4 4 6 6 5 4 5
36 37 35 32 29 28 27 24 22 22 22 20 20 19 18 18 18 14 8 4 2 3 6 7 5 3 3 3 3 2 2 4 6 6 6 5 3 3 5 7 6 5 4
32 32 29 24 22 22 21 18 16 17 16 14 13 13 13 14 13 12 10 7 5 3 5 8 8 8 8 8 8 6 5 6 6 5 4 3 2 1 4 6 6 5 4
27 26 22 18 16 14 13 11 10 10 9 9 8 8 8 8 7 6 5 5 4 3 5 9 11 12 13 13 11 9 7 6 6 4 3 2 1 0 2 4 5 4 4
23 21 18 14 11 9 7 5 5 6 6 6 6 4 4 3 3 1 1 1 1 1 4 7 10 12 13 13 11 9 7 6 5 4 2 1 0 0 1 2 3 3 3
17 16 14 11 8 5 4 4 4 5 6 7 6 3 1 1 1 0 0 0 0 1 4 7 9 11 12 11 10 9 8 6 4 2 1 0 0 0 1 2 3 3 3
12 11 10 8 5 4 4 3 3 4 5 6 6 4 1 0 0 0 0 0 1 2 5 7 9 11 10 9 9 8 6 4 2 1 0 0 0 0 1 2 3 3 3
10 8 7 5 3 3 3 3 3 3 3 4 4 3 1 0 1 1 0 0 1 3 4 5 7 8 8 8 8 7 5 3 1 0 0 0 0 0 1 3 3 3 3
6 5 3 2 1 1 2 3 3 3 3 3 3 3 2 1 2 2 1 1 2 3 3 3 4 6 7 7 7 6 4 2 1 0 0 0 0 0 1 2 2 2 1
1 1 1 0 0 0 1 1 2 2 2 2 3 2 2 2 3 2 1 1 2 2 2 2 3 5 6 6 6 6 3 1 0 0 0 0 0 0 1 1 1 1 0
0 0 0 0 0 0 0 0 1 1 1 1 1 1 1 2 3 2 1 1 2 2 3 4 4 6 6 6 6 6 3 1 0 0 0 0 0 0 0 0 0 0 0
0 0 0 0 0 0 0 0 0 0 0 0 0 1 1 2 3 3 2 2 2 3 4 4 5 6 6 6 6 5 3 1 0 0 1 1 1 0 0 0 0 0 0
0 0 0 0 0 0 0 0 0 0 0 0 0 1 2 2 2 2 3 3 2 3 3 3 5 6 5 5 5 3 1 0 0 0 2 2 1 0 0 0 0 0 0
0 0 0 0 0 0 0 0 0 0 0 0 0 1 2 2 1 2 3 3 3 2 2 2 4 4 4 4 3 2 0 0 0 0 1 2 1 0 0 0 0 0 0

GEFSGL_con_prob3kmehi_366.txt.gz
EHI
17 15 15 14 13 12 9 5 4 6 7 7 8 11 13 14 13 12 11 10 10 9 7 4 2 3 3 1 1 2 2 2 1 0 0 0 0 0 0 0 0 0 0
20 18 16 15 14 12 9 5 3 4 5 6 8 10 12 12 12 11 11 10 10 9 8 6 4 3 3 2 1 1 1 1 0 1 1 1 1 0 0 0 0 0 0
23 22 21 18 14 11 8 6 4 3 3 5 7 8 9 10 10 10 10 10 10 10 9 8 6 4 3 3 3 2 1 0 1 2 2 2 1 0 0 0 0 0 0
22 23 22 19 14 11 9 9 7 4 4 6 6 5 5 7 8 9 10 10 10 10 10 10 9 7 5 4 3 3 2 1 1 2 2 1 1 0 0 0 0 0 0
19 19 20 19 16 13 12 11 10 7 5 6 5 4 4 4 5 6 8 8 9 10 11 11 11 9 6 5 4 3 3 2 2 3 2 1 1 1 1 1 0 0 0
16 16 18 19 18 15 13 12 10 7 6 6 5 5 5 5 4 3 4 5 8 9 10 10 10 9 7 5 4 3 3 3 4 5 4 4 3 3 2 2 1 0 0
14 15 18 19 19 17 14 13 10 8 7 6 6 6 6 6 3 1 1 3 5 7 9 9 9 9 8 6 4 3 3 3 4 5 6 6 5 3 3 2 1 0 0
14 16 17 19 20 19 17 14 12 9 8 7 6 6 6 5 3 1 0 1 3 5 6 7 8 8 8 7 6 4 3 3 3 4 5 6 4 2 1 2 1 0 0
14 14 16 18 20 21 20 17 14 12 10 8 7 6 6 5 3 1 0 1 2 4 5 5 5 5 5 5 5 5 4 4 4 4 4 3 2 1 0 1 1 0 0
13 13 13 16 19 21 20 18 15 14 13 11 9 7 6 6 4 1 0 2 4 5 5 4 3 2 2 3 4 5 6 5 5 4 2 1 1 0 0 0 0 0 0
14 14 15 18 19 19 18 16 14 14 14 13 10 8 7 7 5 1 0 2 5 6 5 5 4 1 1 1 2 4 4 4 5 4 2 0 0 0 0 0 0 0 0
15 15 17 19 19 17 15 14 14 14 14 13 11 9 9 9 6 2 0 1 3 3 4 4 3 1 0 0 0 1 1 2 3 4 2 1 1 0 0 0 0 0 0
13 13 14 15 16 15 14 14 15 14 13 12 12 11 11 12 9 5 2 1 1 1 2 2 2 1 0 0 0 0 0 1 2 3 3 2 1 0 0 0 0 0 0
10 10 10 11 13 13 13 12 11 10 9 11 11 11 11 12 11 9 6 3 2 2 1 1 1 0 0 0 0 0 0 1 2 2 2 1 1 0 0 0 0 0 0
8 8 8 9 11 13 11 9 6 4 4 6 7 7 8 8 8 8 8 5 4 3 2 0 0 0 1 1 1 0 0 0 1 1 1 0 0 0 0 0 0 0 0
8 7 6 7 9 11 10 7 4 1 1 1 2 3 3 3 3 4 4 3 3 2 1 1 1 1 2 3 3 2 1 1 2 3 2 1 1 0 0 0 0 0 0
7 5 4 4 6 8 9 8 4 1 0 0 0 1 1 1 0 0 0 0 0 0 1 2 3 3 4 4 4 4 3 3 3 4 4 3 2 1 0 0 0 0 0
6 4 3 3 4 5 6 6 3 1 0 0 0 0 0 0 0 0 0 0 0 0 1 2 4 5 5 4 4 4 4 3 4 5 5 4 3 2 1 0 0 0 0
5 3 2 2 3 4 4 3 2 1 0 0 0 0 0 0 0 0 0 0 0 1 2 3 4 5 4 3 3 4 4 4 4 5 5 4 3 2 1 0 0 0 0
4 2 1 1 1 2 2 2 1 0 0 0 0 0 0 0 0 0 0 0 1 2 3 3 3 3 3 2 3 3 4 4 5 5 4 3 2 2 1 0 0 0 0
3 1 0 0 0 1 1 1 0 0 0 0 0 0 0 0 0 0 0 0 0 2 3 3 3 1 1 1 1 2 3 4 3 3 2 1 1 1 0 0 0 0 0
2 1 0 0 0 0 0 0 0 0 0 0 0 0 0 0 0 0 1 1 0 1 2 3 2 1 0 0 0 2 3 3 1 1 1 0 0 0 0 0 0 0 0
1 0 0 0 0 0 0 0 0 0 0 0 0 0 0 0 0 0 1 1 0 0 1 2 2 1 0 0 1 2 3 2 1 0 0 0 0 0 0 0 0 0 0
0 0 0 0 0 0 0 0 0 0 0 0 0 0 0 0 0 0 0 0 0 0 0 1 1 1 0 1 1 3 3 2 1 0 0 0 0 0 0 0 0 0 0
0 0 0 0 0 0 0 0 0 0 0 0 0 0 0 0 0 0 0 0 0 0 0 0 0 0 0 1 2 3 2 1 0 0 0 0 0 0 0 0 0 0 0
0 0 0 0 0 0 0 0 0 0 0 0 0 0 0 0 0 0 0 0 0 0 0 0 0 0 0 1 3 3 1 0 0 0 0 0 0 0 0 0 0 0 0

GEFSGL_con_prob3kmehi_372.txt.gz
EHI
5 4 3 4 5 6 5 4 3 3 3 3 3 3 3 3 3 3 3 3 4 5 5 5 3 1 0 0 0 0 1 1 1 0 0 0 0 0 0 0 0 0 0
4 4 4 4 5 4 4 3 3 3 3 3 3 3 3 3 3 3 3 3 3 4 4 4 3 2 1 1 1 1 0 0 0 0 0 0 0 0 0 0 0 0 0
6 6 5 4 4 4 4 4 3 3 3 3 3 3 3 3 3 3 3 3 3 3 3 3 3 3 2 2 2 2 1 1 0 0 0 0 0 0 0 0 0 0 0
7 6 5 4 3 3 5 5 4 3 3 3 3 3 3 3 3 3 3 3 3 3 3 3 3 3 3 3 3 3 3 2 1 0 0 0 0 0 0 0 0 0 0
6 5 3 3 3 3 5 6 5 4 3 3 3 3 3 3 3 3 3 3 3 3 3 3 3 3 3 3 3 3 3 3 3 1 1 1 1 1 0 0 0 0 0
6 5 3 2 3 3 4 6 7 6 5 4 4 4 4 3 3 3 3 3 3 3 3 3 3 3 3 3 3 3 3 4 4 3 3 2 2 2 1 0 0 0 0
6 6 5 4 3 3 4 7 9 8 6 5 5 5 5 4 3 1 1 2 3 3 4 4 4 4 4 4 4 3 3 3 4 4 4 3 3 3 2 1 0 0 0
6 6 6 5 4 5 6 8 8 8 7 6 5 5 5 5 3 1 0 2 3 4 5 6 6 6 6 6 5 4 4 4 4 4 3 3 3 3 3 2 1 0 0
4 5 6 6 6 7 8 8 7 6 6 7 7 5 5 5 3 1 0 2 3 4 6 6 6 6 6 5 5 6 6 5 5 4 3 3 3 3 3 2 1 1 0
4 5 6 6 6 6 7 6 5 5 6 9 8 7 6 5 4 1 0 1 2 3 5 6 6 5 4 2 3 5 6 7 7 5 4 3 3 3 2 3 3 2 1
4 5 6 6 6 5 4 4 3 4 7 8 8 7 6 5 3 1 0 0 1 2 4 5 5 3 1 1 1 3 5 6 7 6 4 3 3 3 3 3 3 2 2
6 6 6 6 6 5 4 4 4 5 7 8 7 7 5 3 2 0 0 0 0 0 2 3 2 1 0 0 1 2 2 3 4 5 5 4 4 4 3 3 2 1 1
6 6 6 6 6 6 5 5 5 6 6 7 7 5 5 4 3 2 1 0 0 0 0 1 1 0 0 0 0 0 0 1 3 4 5 6 5 4 3 2 1 0 0
7 7 7 6 5 6 6 6 6 5 5 6 6 5 4 4 4 4 3 2 1 0 0 0 0 0 1 1 1 1 1 2 3 4 5 7 6 3 2 1 0 0 0
9 9 8 6 6 6 6 5 4 4 4 5 5 5 4 2 2 2 3 3 2 1 0 1 1 1 1 2 2 2 2 2 3 3 3 4 4 3 2 1 0 0 0
10 9 8 7 6 6 6 5 4 3 3 3 3 3 2 1 0 0 1 1 1 0 1 2 1 1 1 3 3 3 4 4 4 3 2 2 3 3 1 1 0 0 0
9 8 6 6 6 6 6 5 4 3 2 1 1 1 1 0 0 0 0 0 0 0 1 1 1 0 1 2 3 4 5 5 4 3 3 3 3 3 2 1 0 0 0
6 6 5 4 4 4 5 5 4 2 1 0 0 0 0 0 0 0 0 0 0 0 0 0 0 0 0 1 1 3 4 4 4 3 3 3 4 4 4 3 2 1 0
4 4 3 3 3 3 4 4 3 1 1 0 0 0 0 0 0 0 0 0 0 0 0 0 0 0 0 0 1 2 3 3 3 3 3 3 3 4 5 5 4 3 2
3 3 3 3 3 3 3 3 2 1 0 0 0 0 0 0 0 0 0 0 0 0 0 0 0 0 0 0 2 3 2 1 1 2 3 3 3 3 4 4 4 4 4
3 3 3 3 3 3 3 3 2 1 0 0 0 0 0 0 0 0 0 0 0 0 0 0 0 0 0 0 1 3 2 0 0 1 2 3 3 3 4 3 3 3 4
3 3 3 2 2 2 2 1 1 0 0 0 0 0 0 0 0 0 0 0 0 0 0 0 0 0 0 0 1 2 2 1 0 1 2 3 3 4 4 3 3 2 2
2 2 1 1 1 1 1 0 0 0 0 0 0 0 0 0 0 0 0 0 0 0 0 0 0 0 0 0 1 2 3 1 0 1 2 4 4 4 4 3 1 1 1
1 1 0 0 0 0 0 0 0 0 0 0 0 0 0 0 0 0 0 0 0 0 0 0 0 0 0 0 1 2 3 2 0 0 1 3 5 5 5 3 1 1 0
1 0 0 0 0 0 0 0 0 0 0 0 0 0 0 0 0 0 0 0 0 0 0 0 0 0 0 0 1 2 2 1 0 0 1 3 4 4 4 3 2 1 1
1 1 0 0 0 0 0 0 0 0 0 0 0 0 0 0 0 0 0 0 0 0 0 0 0 0 0 0 0 1 1 0 0 0 1 2 3 3 2 1 1 1 0

GEFSGL_con_prob3kmehi_378.txt.gz
EHI
27 26 24 24 25 25 21 18 17 14 11 10 10 11 9 8 7 8 8 9 12 13 12 11 11 11 11 10 9 9 9 8 6 3 3 5 6 4 2 3 4 5 6
27 27 27 26 26 24 22 20 19 15 11 9 9 9 8 7 7 9 10 10 11 12 12 11 11 12 12 10 7 6 6 7 6 4 3 6 6 5 4 6 6 6 6
28 29 29 28 25 22 21 21 20 16 13 11 10 9 8 7 8 10 11 11 11 12 12 11 11 13 13 11 8 6 5 5 6 5 5 7 8 7 8 9 10 9 8
26 26 26 24 22 20 19 19 18 15 13 12 12 11 9 9 10 11 12 11 11 11 9 8 8 10 11 11 10 10 9 8 8 7 7 8 9 9 9 11 13 12 10
21 21 19 18 17 17 16 15 14 12 9 9 10 10 8 8 9 10 10 9 8 8 7 5 4 6 7 7 8 10 11 11 11 10 9 9 9 10 10 11 13 14 12
19 17 15 14 13 13 13 12 12 11 9 8 9 8 6 5 5 5 6 6 6 7 7 6 5 5 5 5 5 6 7 9 11 12 11 10 10 11 11 11 13 13 12
20 18 16 14 13 11 10 11 12 12 11 10 9 8 6 4 3 2 2 5 6 7 8 8 7 5 5 5 4 4 5 6 8 10 12 11 10 11 12 12 14 14 13
22 21 19 17 16 14 12 12 13 13 12 10 9 9 8 6 3 1 1 4 7 8 10 10 8 6 5 5 6 6 7 7 6 6 9 9 8 10 11 12 14 15 15
21 22 21 19 17 15 13 12 12 12 10 10 9 10 10 7 4 1 2 5 8 10 11 10 8 6 5 5 6 8 8 8 6 5 5 5 5 6 8 10 13 14 14
18 18 17 15 13 12 11 10 10 9 9 8 8 9 10 8 5 1 2 6 10 11 11 10 8 6 4 4 6 8 8 8 7 6 5 5 5 6 7 9 12 14 13
16 15 13 11 9 9 9 9 9 9 9 8 8 8 9 8 5 1 1 4 8 9 9 10 7 4 2 2 3 6 7 7 8 9 8 7 8 10 10 11 13 13 13
15 14 12 10 8 7 8 9 9 9 9 9 9 9 9 8 5 1 0 1 3 5 7 8 6 2 1 0 1 2 3 4 7 9 9 9 10 12 14 15 14 13 13
15 14 12 10 8 7 8 8 8 8 8 8 8 9 10 9 6 3 1 0 1 3 4 4 3 1 0 0 0 0 0 1 4 6 7 8 9 11 13 15 15 14 13
15 14 13 11 10 9 8 7 7 8 8 8 9 9 9 9 8 6 4 2 1 1 1 1 1 1 0 0 0 0 1 1 2 2 2 4 6 8 10 11 13 13 13
15 14 12 12 12 11 9 6 5 7 8 8 8 7 7 6 6 6 6 4 1 0 0 2 3 3 2 2 2 2 3 3 2 1 0 1 3 5 7 8 9 10 11
15 14 12 11 11 11 10 7 5 4 4 4 4 4 3 2 2 2 3 3 1 0 1 3 4 4 4 4 5 5 5 4 3 1 0 1 2 3 5 7 7 6 6
14 15 14 11 10 10 10 8 6 3 2 1 2 1 0 0 0 0 0 0 0 0 1 2 2 3 3 3 5 5 5 5 4 3 1 1 1 2 4 5 5 4 3
12 14 15 13 10 9 9 8 7 5 3 3 2 1 0 0 0 0 0 0 0 0 0 0 0 1 1 1 1 2 3 4 5 5 4 2 1 1 2 4 4 2 2
10 12 13 12 11 10 10 8 7 5 4 3 3 1 0 0 0 0 0 0 0 0 0 0 0 0 0 0 1 1 1 3 4 5 5 5 3 2 1 1 1 1 1
8 8 9 10 10 10 10 8 7 6 5 4 3 2 1 1 1 1 0 0 0 0 0 0 0 0 0 0 1 2 2 3 3 4 5 6 4 2 1 0 0 0 0
6 5 7 8 9 9 9 8 7 6 5 4 4 2 1 2 2 2 1 0 0 0 0 0 0 0 0 0 1 1 2 3 2 2 4 4 3 1 1 2 2 1 0
6 5 6 7 7 7 7 6 6 5 5 5 4 2 1 2 2 2 1 0 0 0 0 0 0 0 0 0 0 0 1 2 1 1 3 3 2 1 2 3 3 2 1
6 6 6 6 6 6 5 4 4 4 4 4 3 1 0 1 1 1 0 0 0 0 0 0 0 0 0 0 0 0 1 1 0 1 2 3 3 3 3 3 3 2 2
6 6 6 6 6 6 4 3 3 3 3 3 2 1 0 0 0 0 0 0 0 0 0 0 0 0 0 0 0 0 0 0 0 0 1 2 3 3 3 3 1 1 1
7 7 7 7 7 6 4 3 3 3 2 1 1 0 0 0 0 0 0 0 0 0 0 0 0 0 0 0 0 0 0 0 0 0 0 1 1 2 2 2 1 0 0
9 9 9 8 7 6 4 3 3 3 1 0 0 0 0 0 0 0 0 0 0 0 0 0 0 0 0 0 0 0 0 0 0 0 0 0 0 1 1 1 0 0 0